Terug naar catalogus

COSMOS 2499 DEB

ActiefPO
NORAD 56567·DEBRIS·🇷🇺 Russia

Gelanceerd May 23, 2014 vanaf Plesetsk Cosmodrome

Loading…

Volgende Passages (komende 24 uur)

TLE

VersSource: Space-Track

Epoch: Sep 14, 2026, 15:49 UTC

1 56567U 14028BA  26257.65942305  .00006366  00000-0  23874-1 0  9996
2 56567  82.6251 224.3862 0176279 144.4179 216.8833 12.86463348170480

Volg COSMOS 2499 DEB in realtime met AllMySat

Download on the App Store